ベーティン彗星

85P/Boethin (1997)

English version
Home page
Total 6,336 html files since Dec. 4, 1995
Updated on August 31, 2008

---------------------------------------------------------------------

・ プロフィール

・ 軌道要素

Epoch 1997 Apr. 22.0 TT = JDT 2450560.5
T 1997 Apr. 17.70258 TT                                 Muraoka
q   1.1581589            (2000.0)            P               Q
n   0.08475443     Peri.   22.32478     +0.80166185     -0.59740283
a   5.1328800      Node    14.41893     +0.53480413     +0.70093868
e   0.7743647      Incl.    4.87681     +0.26706334     +0.38960855
P  11.63
>From 55 observations 1975-1986, mean residual 1".42.

・ 星図

・ 1996年 8月 5日〜1997年 5月12日
・ 1997年 4月22日〜1998年 1月27日

・ 光度変化

        m1 = 5.0 + 5 logΔ + 40 log r

---------------------------------------------------------------------

軌道要素は村岡健治氏の計算によるものです。
星図は StellaNavigator Ver.2.0 for Windows (アストロアーツ 編著 / アスキー出版局刊) で作成したものです。
光度グラフはComet for Windowsで作成したものです。

---------------------------------------------------------------------

Copyright(C) 1995-2008 Seiichi Yoshida (comet@aerith.net). All rights reserved.